Location: Eaton Estates
(41.3089°N, 82.0057°W)
Time: 09:09:06
(UTC+00:00)

NOAA 18 - Pass Details

Date: 04 April 2023
Orbit: 838 x 860 km, 98.9° (Epoch: 03 June)

Event Time Altitude Azimuth Distance (km) Brightness Sun altitude
Exits shadow 01:48:08 15° 57° (ENE) 2,170 7.1 -20.9°
Drops below altitude 10° 01:50:58 10° 26° (NNE) 2,505 7.7 -21.4°
Sets 01:54:23 0° 4° (N) 3,446 8.7 -21.9°
